TimeCDT,TemperatureF,Dew PointF,Humidity,Sea Level PressureIn,VisibilityMPH,Wind Direction,Wind SpeedMPH,Gust SpeedMPH,PrecipitationIn,Events,Conditions,WindDirDegrees,DateUTC
12:12 AM,30.2,30.2,100,29.83,10.0,NW,3.5,-,N/A,,Overcast,320,2013-04-16 05:12:00
12:32 AM,30.2,30.2,100,29.84,10.0,Calm,Calm,-,N/A,,Overcast,0,2013-04-16 05:32:00
12:52 AM,30.2,30.2,100,29.84,10.0,NNW,4.6,-,N/A,,Overcast,330,2013-04-16 05:52:00
1:12 AM,30.2,30.2,100,29.84,10.0,NW,4.6,-,N/A,,Mostly Cloudy,320,2013-04-16 06:12:00
1:32 AM,30.2,30.2,100,29.86,10.0,NW,4.6,-,N/A,,Mostly Cloudy,310,2013-04-16 06:32:00
1:52 AM,30.2,30.2,100,29.86,10.0,NNW,5.8,-,N/A,,Overcast,330,2013-04-16 06:52:00
2:12 AM,30.2,30.2,100,29.87,3.0,NNW,5.8,-,N/A,Snow,Light Snow,330,2013-04-16 07:12:00
2:32 AM,30.2,28.4,93,29.88,1.5,NW,5.8,-,N/A,Snow,Light Snow,320,2013-04-16 07:32:00
2:52 AM,28.4,28.4,100,29.89,3.0,NW,3.5,-,N/A,Snow,Light Snow,320,2013-04-16 07:52:00
3:12 AM,28.4,28.4,100,29.90,5.0,Calm,Calm,-,N/A,,Overcast,0,2013-04-16 08:12:00
3:32 AM,28.4,28.4,100,29.90,10.0,NW,4.6,-,N/A,,Overcast,320,2013-04-16 08:32:00
3:54 AM,28.4,28.4,100,29.91,5.0,NW,3.5,-,N/A,,Mostly Cloudy,320,2013-04-16 08:54:00
4:12 AM,28.4,28.4,100,29.92,7.0,Calm,Calm,-,N/A,,Overcast,0,2013-04-16 09:12:00
4:32 AM,28.4,28.4,100,29.92,10.0,NW,6.9,-,N/A,,Overcast,320,2013-04-16 09:32:00
4:52 AM,28.4,28.4,100,29.93,10.0,Calm,Calm,-,N/A,,Overcast,0,2013-04-16 09:52:00
5:12 AM,28.4,28.4,100,29.95,3.0,NW,3.5,-,N/A,Snow,Light Snow,320,2013-04-16 10:12:00
5:32 AM,28.4,28.4,100,29.95,2.0,Calm,Calm,-,N/A,Snow,Light Snow,0,2013-04-16 10:32:00
5:52 AM,26.6,26.6,100,29.96,3.0,Calm,Calm,-,N/A,Snow,Light Snow,0,2013-04-16 10:52:00
6:12 AM,26.6,26.6,100,29.98,7.0,Calm,Calm,-,N/A,Snow,Light Snow,0,2013-04-16 11:12:00
6:32 AM,26.6,26.6,100,30.00,7.0,Calm,Calm,-,N/A,,Overcast,0,2013-04-16 11:32:00
7:12 AM,26.6,26.6,100,30.03,2.0,NW,3.5,-,N/A,Snow,Light Snow,320,2013-04-16 12:12:00
7:32 AM,28.4,28.4,100,30.03,1.8,NNW,5.8,-,N/A,Snow,Light Snow,330,2013-04-16 12:32:00
7:52 AM,28.4,28.4,100,30.04,1.8,NNW,5.8,-,N/A,Snow,Light Snow,330,2013-04-16 12:52:00
8:12 AM,28.4,28.4,100,30.05,2.0,NNW,6.9,-,N/A,Snow,Light Snow,330,2013-04-16 13:12:00
8:32 AM,30.2,28.4,93,30.07,2.5,NNW,5.8,-,N/A,Snow,Light Snow,330,2013-04-16 13:32:00
8:52 AM,30.2,28.4,93,30.07,3.0,NNW,5.8,-,N/A,Snow,Light Snow,330,2013-04-16 13:52:00
9:12 AM,30.2,30.2,100,30.08,3.0,NNW,6.9,-,N/A,Snow,Light Snow,340,2013-04-16 14:12:00
9:32 AM,30.2,30.2,100,30.10,7.0,NNW,5.8,-,N/A,,Overcast,330,2013-04-16 14:32:00
9:52 AM,30.2,30.2,100,30.11,5.0,Calm,Calm,-,N/A,,Overcast,0,2013-04-16 14:52:00
10:12 AM,32.0,30.2,93,30.12,10.0,NNW,3.5,-,N/A,,Overcast,330,2013-04-16 15:12:00
10:32 AM,33.8,32.0,93,30.13,5.0,NNW,5.8,-,N/A,,Overcast,330,2013-04-16 15:32:00
10:52 AM,32.0,32.0,100,30.15,1.8,NNW,4.6,-,N/A,Snow,Light Snow,330,2013-04-16 15:52:00
11:12 AM,33.8,33.8,100,30.16,10.0,NW,8.1,-,N/A,,Overcast,320,2013-04-16 16:12:00
11:32 AM,35.6,33.8,93,30.17,10.0,NNW,5.8,-,N/A,,Overcast,340,2013-04-16 16:32:00
11:52 AM,33.8,33.8,100,30.17,10.0,NW,5.8,-,N/A,,Overcast,320,2013-04-16 16:52:00
12:12 PM,35.6,35.6,100,30.18,10.0,North,8.1,-,N/A,,Overcast,360,2013-04-16 17:12:00
12:32 PM,35.6,33.8,93,30.20,10.0,Calm,Calm,-,N/A,,Overcast,0,2013-04-16 17:32:00
12:52 PM,37.4,37.4,100,30.20,10.0,NNE,4.6,-,N/A,,Overcast,20,2013-04-16 17:52:00
1:12 PM,37.4,35.6,93,30.21,10.0,NNW,4.6,-,N/A,,Overcast,330,2013-04-16 18:12:00
1:32 PM,35.6,35.6,100,30.22,10.0,NW,8.1,-,N/A,,Overcast,320,2013-04-16 18:32:00
1:52 PM,35.6,35.6,100,30.23,10.0,North,5.8,-,N/A,,Overcast,360,2013-04-16 18:52:00
2:12 PM,35.6,33.8,93,30.24,10.0,NNE,6.9,-,N/A,,Overcast,20,2013-04-16 19:12:00
2:32 PM,35.6,35.6,100,30.24,10.0,NNE,3.5,-,N/A,,Overcast,20,2013-04-16 19:32:00
2:52 PM,35.6,35.6,100,30.25,10.0,NNE,4.6,-,N/A,,Overcast,20,2013-04-16 19:52:00
3:12 PM,35.6,35.6,100,30.25,10.0,NNE,4.6,-,N/A,,Overcast,20,2013-04-16 20:12:00
3:32 PM,35.6,35.6,100,30.26,10.0,NNE,4.6,-,N/A,,Overcast,20,2013-04-16 20:32:00
3:52 PM,35.6,35.6,100,30.26,10.0,NNW,5.8,-,N/A,,Overcast,340,2013-04-16 20:52:00
4:12 PM,35.6,35.6,100,30.27,10.0,North,5.8,-,N/A,,Overcast,350,2013-04-16 21:12:00
4:32 PM,35.6,35.6,100,30.28,10.0,North,5.8,-,N/A,,Overcast,360,2013-04-16 21:32:00
4:52 PM,35.6,35.6,100,30.28,10.0,North,6.9,-,N/A,,Overcast,350,2013-04-16 21:52:00
5:12 PM,35.6,35.6,100,30.29,10.0,North,4.6,-,N/A,,Overcast,360,2013-04-16 22:12:00
5:32 PM,35.6,35.6,100,30.29,10.0,North,3.5,-,N/A,,Overcast,360,2013-04-16 22:32:00
5:52 PM,35.6,33.8,93,30.29,10.0,North,4.6,-,N/A,,Overcast,10,2013-04-16 22:52:00
6:12 PM,35.6,33.8,93,30.30,10.0,NNE,3.5,-,N/A,,Overcast,20,2013-04-16 23:12:00
6:32 PM,33.8,33.8,100,30.31,10.0,Calm,Calm,-,N/A,,Overcast,0,2013-04-16 23:32:00
6:52 PM,33.8,33.8,100,30.31,10.0,Calm,Calm,-,N/A,,Overcast,0,2013-04-16 23:52:00
7:12 PM,33.8,33.8,100,30.32,10.0,Calm,Calm,-,N/A,,Overcast,0,2013-04-17 00:12:00
7:32 PM,33.8,33.8,100,30.33,10.0,Calm,Calm,-,N/A,,Overcast,0,2013-04-17 00:32:00
7:52 PM,33.8,33.8,100,30.34,10.0,Calm,Calm,-,N/A,,Overcast,0,2013-04-17 00:52:00
8:12 PM,32.0,32.0,100,30.34,10.0,Calm,Calm,-,N/A,,Overcast,0,2013-04-17 01:12:00
8:32 PM,32.0,32.0,100,30.36,10.0,Calm,Calm,-,N/A,,Overcast,0,2013-04-17 01:32:00
8:52 PM,32.0,30.2,93,30.37,10.0,Calm,Calm,-,N/A,,Overcast,0,2013-04-17 01:52:00
9:12 PM,30.2,30.2,100,30.37,10.0,Calm,Calm,-,N/A,,Overcast,0,2013-04-17 02:12:00
9:32 PM,30.2,30.2,100,30.38,10.0,Calm,Calm,-,N/A,,Overcast,0,2013-04-17 02:32:00
9:52 PM,30.2,30.2,100,30.38,10.0,Calm,Calm,-,N/A,,Overcast,0,2013-04-17 02:52:00
10:12 PM,30.2,30.2,100,30.39,10.0,Calm,Calm,-,N/A,,Overcast,0,2013-04-17 03:12:00
10:32 PM,30.2,30.2,100,30.39,10.0,Calm,Calm,-,N/A,,Overcast,0,2013-04-17 03:32:00
10:52 PM,30.2,30.2,100,30.39,10.0,Calm,Calm,-,N/A,,Overcast,0,2013-04-17 03:52:00
11:12 PM,30.2,30.2,100,30.39,10.0,Calm,Calm,-,N/A,,Overcast,0,2013-04-17 04:12:00
11:32 PM,28.4,28.4,100,30.39,10.0,Calm,Calm,-,N/A,,Overcast,0,2013-04-17 04:32:00
11:52 PM,28.4,28.4,100,30.39,10.0,Calm,Calm,-,N/A,,Overcast,0,2013-04-17 04:52:00